SWA223 KMIA-KDCA

Flight info

Callsign SWA223
Flight time 2h 4m
Altitude 34000
Route FOLZZ3 ALYRA GRUBR/N0456F350 Y299 SEELO GARIC RANAY TANJA WAVES CAPSS4
Aircraft B738/M-SDE2E3FGHIRWXY/LB1

Departure

Time 2026-04-24 03:35
Airport Miami International Airport (KMIA)

Arrival

Time 2026-04-24 05:40
Airport Ronald Reagan Washington National Airport (KDCA)
Time Latitude Longitude Altitude Speed Heading
2026-04-24 03:24 25.79823 -80.28319 19 ft 0 kts 177°
2026-04-24 03:27 25.79826 -80.28319 19 ft 2 kts 177°
2026-04-24 03:28 25.79842 -80.28320 18 ft 2 kts 177°
2026-04-24 03:28 25.79858 -80.28321 20 ft 2 kts 177°
2026-04-24 03:28 25.79874 -80.28321 20 ft 2 kts 177°
2026-04-24 03:28 25.79888 -80.28317 21 ft 2 kts 261°
2026-04-24 03:29 25.79888 -80.28309 21 ft 0 kts 268°
2026-04-24 03:30 25.79888 -80.28313 21 ft 3 kts 268°
2026-04-24 03:30 25.79886 -80.28369 20 ft 10 kts 267°
2026-04-24 03:30 25.79917 -80.28430 19 ft 10 kts 329°
2026-04-24 03:30 25.79950 -80.28498 20 ft 10 kts 294°
2026-04-24 03:31 25.80007 -80.28541 20 ft 10 kts 325°
2026-04-24 03:31 25.80024 -80.28610 23 ft 10 kts 267°
2026-04-24 03:31 25.80021 -80.28684 28 ft 9 kts 267°
2026-04-24 03:31 25.80018 -80.28756 26 ft 9 kts 267°
2026-04-24 03:32 25.80014 -80.28838 25 ft 13 kts 267°
2026-04-24 03:32 25.80009 -80.28958 23 ft 17 kts 267°
2026-04-24 03:32 25.80003 -80.29099 24 ft 19 kts 269°
2026-04-24 03:32 25.79998 -80.29246 24 ft 20 kts 267°
2026-04-24 03:33 25.79991 -80.29415 18 ft 23 kts 267°
2026-04-24 03:33 25.79983 -80.29590 16 ft 21 kts 267°
2026-04-24 03:33 25.79976 -80.29751 17 ft 21 kts 267°
2026-04-24 03:33 25.79969 -80.29906 14 ft 20 kts 267°
2026-04-24 03:34 25.79964 -80.30043 16 ft 15 kts 276°
2026-04-24 03:34 25.80022 -80.30124 18 ft 14 kts 356°
2026-04-24 03:34 25.80076 -80.29998 15 ft 49 kts 87°
2026-04-24 03:34 25.80105 -80.29291 22 ft 131 kts 87°
2026-04-24 03:35 25.80156 -80.28111 508 ft 161 kts 87°
2026-04-24 03:35 25.80246 -80.26779 1267 ft 182 kts 85°
2026-04-24 03:35 25.80260 -80.25419 2447 ft 182 kts 104°
2026-04-24 03:35 25.79652 -80.24106 2841 ft 207 kts 118°
2026-04-24 03:36 25.78930 -80.22624 3016 ft 230 kts 116°
2026-04-24 03:36 25.78164 -80.20971 3284 ft 249 kts 116°
2026-04-24 03:36 25.77363 -80.19220 3774 ft 258 kts 116°
2026-04-24 03:36 25.76529 -80.17429 4363 ft 264 kts 117°
2026-04-24 03:37 25.75644 -80.15640 4940 ft 266 kts 117°
2026-04-24 03:37 25.74757 -80.13864 4973 ft 261 kts 117°
2026-04-24 03:37 25.74190 -80.11973 4974 ft 260 kts 91°
2026-04-24 03:37 25.74518 -80.10019 4997 ft 263 kts 65°
2026-04-24 03:38 25.75515 -80.08334 5009 ft 267 kts 51°
2026-04-24 03:38 25.76725 -80.06777 4998 ft 266 kts 49°
2026-04-24 03:38 25.77949 -80.05254 4997 ft 263 kts 49°
2026-04-24 03:38 25.79167 -80.03742 4998 ft 262 kts 49°
2026-04-24 03:39 25.80373 -80.02237 4982 ft 261 kts 49°
2026-04-24 03:39 25.81581 -80.00723 4997 ft 263 kts 49°
2026-04-24 03:39 25.82798 -79.99191 4999 ft 264 kts 49°
2026-04-24 03:39 25.84015 -79.97657 4986 ft 266 kts 49°
2026-04-24 03:40 25.85235 -79.96112 4996 ft 266 kts 49°
2026-04-24 03:40 25.86446 -79.94577 4990 ft 264 kts 49°
2026-04-24 03:40 25.87652 -79.93046 4987 ft 262 kts 49°
2026-04-24 03:40 25.88836 -79.91543 4987 ft 262 kts 49°
2026-04-24 03:41 25.90035 -79.90019 4991 ft 263 kts 49°
2026-04-24 03:41 25.91240 -79.88485 4993 ft 264 kts 49°
2026-04-24 03:41 25.92441 -79.86932 5052 ft 267 kts 51°
2026-04-24 03:41 25.93598 -79.85306 5672 ft 267 kts 51°
2026-04-24 03:42 25.94741 -79.83669 6312 ft 272 kts 51°
2026-04-24 03:42 25.95915 -79.81985 6852 ft 278 kts 51°
2026-04-24 03:42 25.97101 -79.80286 7501 ft 280 kts 51°
2026-04-24 03:42 25.98297 -79.78579 8059 ft 286 kts 51°
2026-04-24 03:43 25.99532 -79.76819 8658 ft 292 kts 50°
2026-04-24 03:43 26.00791 -79.75025 9293 ft 296 kts 51°
2026-04-24 03:43 26.02065 -79.73209 9944 ft 301 kts 51°
2026-04-24 03:43 26.03370 -79.71353 10399 ft 312 kts 50°
2026-04-24 03:44 26.04757 -79.69383 10546 ft 334 kts 50°
2026-04-24 03:44 26.06237 -79.67284 10721 ft 354 kts 50°
2026-04-24 03:44 26.07787 -79.65082 10988 ft 369 kts 50°
2026-04-24 03:44 26.09380 -79.62811 11495 ft 374 kts 51°
2026-04-24 03:45 26.10957 -79.60561 12176 ft 375 kts 50°
2026-04-24 03:45 26.12567 -79.58263 12804 ft 378 kts 50°
2026-04-24 03:45 26.14192 -79.55943 13382 ft 383 kts 50°
2026-04-24 03:45 26.15838 -79.53593 13983 ft 387 kts 51°
2026-04-24 03:46 26.17506 -79.51210 14451 ft 393 kts 51°
2026-04-24 03:46 26.19189 -79.48804 15105 ft 395 kts 51°
2026-04-24 03:46 26.20885 -79.46380 15667 ft 399 kts 51°
2026-04-24 03:46 26.22598 -79.43931 16242 ft 403 kts 51°
2026-04-24 03:47 26.24328 -79.41458 16803 ft 406 kts 51°
2026-04-24 03:47 26.26074 -79.38959 17361 ft 410 kts 51°
2026-04-24 03:47 26.27846 -79.36457 17928 ft 413 kts 48°
2026-04-24 03:47 26.29867 -79.34230 18408 ft 416 kts 38°
2026-04-24 03:48 26.32239 -79.32382 18901 ft 417 kts 31°
2026-04-24 03:48 26.34699 -79.30653 19408 ft 419 kts 30°
2026-04-24 03:48 26.37182 -79.28927 19868 ft 423 kts 30°
2026-04-24 03:48 26.39692 -79.27179 20330 ft 426 kts 31°
2026-04-24 03:49 26.42209 -79.25413 20805 ft 429 kts 31°
2026-04-24 03:49 26.44740 -79.23626 21275 ft 432 kts 31°
2026-04-24 03:49 26.47285 -79.21819 21738 ft 436 kts 31°
2026-04-24 03:49 26.49819 -79.20014 22136 ft 440 kts 31°
2026-04-24 03:50 26.52404 -79.18168 22554 ft 443 kts 32°
2026-04-24 03:50 26.55011 -79.16305 22974 ft 446 kts 32°
2026-04-24 03:50 26.57633 -79.14429 23394 ft 449 kts 32°
2026-04-24 03:50 26.60275 -79.12538 23780 ft 452 kts 32°
2026-04-24 03:51 26.62933 -79.10635 24129 ft 455 kts 32°
2026-04-24 03:51 26.65606 -79.08721 24480 ft 457 kts 31°
2026-04-24 03:51 26.68292 -79.06796 24829 ft 460 kts 31°
2026-04-24 03:51 26.70989 -79.04863 25155 ft 462 kts 31°
2026-04-24 03:52 26.73662 -79.02946 25507 ft 464 kts 31°
2026-04-24 03:52 26.76386 -79.00991 25857 ft 466 kts 31°
2026-04-24 03:52 26.79117 -78.99029 26184 ft 468 kts 30°
2026-04-24 03:52 26.81863 -78.97056 26489 ft 470 kts 30°
2026-04-24 03:53 26.84625 -78.95070 26784 ft 473 kts 30°
2026-04-24 03:53 26.87399 -78.93074 27082 ft 475 kts 30°
2026-04-24 03:53 26.90187 -78.91067 27383 ft 477 kts 30°
2026-04-24 03:53 26.92987 -78.89050 27670 ft 480 kts 30°
2026-04-24 03:54 26.95799 -78.87023 27949 ft 482 kts 30°
2026-04-24 03:54 26.98586 -78.85013 28224 ft 484 kts 30°
2026-04-24 03:54 27.01425 -78.82964 28494 ft 486 kts 30°
2026-04-24 03:54 27.04276 -78.80905 28775 ft 488 kts 30°
2026-04-24 03:55 27.07141 -78.78836 29011 ft 491 kts 30°
2026-04-24 03:55 27.10018 -78.76755 29262 ft 493 kts 30°
2026-04-24 03:55 27.12908 -78.74664 29574 ft 494 kts 30°
2026-04-24 03:55 27.15787 -78.72579 29984 ft 492 kts 30°
2026-04-24 03:56 27.18661 -78.70495 30376 ft 491 kts 30°
2026-04-24 03:56 27.21528 -78.68417 30693 ft 490 kts 29°
2026-04-24 03:56 27.24395 -78.66339 30979 ft 490 kts 28°
2026-04-24 03:56 27.27334 -78.64538 31219 ft 487 kts 19°
2026-04-24 03:57 27.30498 -78.63251 31540 ft 480 kts 11°
2026-04-24 03:57 27.33742 -78.62497 31896 ft 473 kts
2026-04-24 03:57 27.36991 -78.62086 32299 ft 469 kts
2026-04-24 03:57 27.40235 -78.61706 32604 ft 469 kts
2026-04-24 03:58 27.43482 -78.61327 32857 ft 469 kts
2026-04-24 03:58 27.46734 -78.60938 33140 ft 469 kts
2026-04-24 03:58 27.49974 -78.60538 33488 ft 468 kts
2026-04-24 03:58 27.53202 -78.60128 33844 ft 466 kts
2026-04-24 03:59 27.56375 -78.59720 34134 ft 465 kts
2026-04-24 03:59 27.59589 -78.59303 34375 ft 465 kts
2026-04-24 03:59 27.62798 -78.58884 34660 ft 463 kts
2026-04-24 03:59 27.65990 -78.58467 34987 ft 461 kts
2026-04-24 04:00 27.69170 -78.58051 35255 ft 459 kts
2026-04-24 04:00 27.72342 -78.57638 35461 ft 460 kts
2026-04-24 04:00 27.75520 -78.57225 35667 ft 460 kts
2026-04-24 04:00 27.78691 -78.56812 35926 ft 458 kts
2026-04-24 04:01 27.81857 -78.56399 36199 ft 456 kts
2026-04-24 04:01 27.84963 -78.55993 36438 ft 455 kts
2026-04-24 04:01 27.88110 -78.55582 36641 ft 455 kts
2026-04-24 04:01 27.91261 -78.55171 36861 ft 455 kts
2026-04-24 04:02 27.94400 -78.54761 37093 ft 454 kts
2026-04-24 04:02 28.00706 -78.53938 37112 ft 456 kts
2026-04-24 04:03 28.06994 -78.53113 37101 ft 453 kts
2026-04-24 04:03 28.13235 -78.52293 37099 ft 450 kts
2026-04-24 04:04 28.19395 -78.51484 37111 ft 448 kts
2026-04-24 04:04 28.25583 -78.50671 37100 ft 447 kts
2026-04-24 04:05 28.31767 -78.49859 37104 ft 448 kts
2026-04-24 04:05 28.37964 -78.49043 37106 ft 449 kts
2026-04-24 04:06 28.44183 -78.48223 37100 ft 451 kts
2026-04-24 04:06 28.50387 -78.47405 37109 ft 453 kts
2026-04-24 04:07 28.56673 -78.46573 37115 ft 455 kts
2026-04-24 04:07 28.62978 -78.45738 37108 ft 457 kts
2026-04-24 04:08 28.69303 -78.44900 37107 ft 458 kts
2026-04-24 04:08 28.75595 -78.44064 37132 ft 458 kts
2026-04-24 04:09 28.81933 -78.43222 37106 ft 458 kts
2026-04-24 04:09 28.88262 -78.42379 37097 ft 458 kts
2026-04-24 04:10 28.94580 -78.41538 37110 ft 457 kts
2026-04-24 04:10 29.00886 -78.40697 37099 ft 456 kts
2026-04-24 04:11 29.10275 -78.39443 37109 ft 454 kts
2026-04-24 04:11 29.16544 -78.38604 37103 ft 454 kts
2026-04-24 04:12 29.22816 -78.37764 37112 ft 453 kts
2026-04-24 04:12 29.29075 -78.36925 37107 ft 453 kts
2026-04-24 04:13 29.35300 -78.36090 37113 ft 453 kts
2026-04-24 04:13 29.41563 -78.35248 37107 ft 453 kts
2026-04-24 04:14 29.47835 -78.34638 37069 ft 450 kts 353°
2026-04-24 04:14 29.53897 -78.35854 37098 ft 440 kts 340°
2026-04-24 04:15 29.59771 -78.37830 37088 ft 441 kts 339°
2026-04-24 04:15 29.65623 -78.39798 37094 ft 443 kts 340°
2026-04-24 04:16 29.71541 -78.41741 37101 ft 443 kts 340°
2026-04-24 04:16 29.77472 -78.43670 37116 ft 443 kts 340°
2026-04-24 04:17 29.83409 -78.45601 37122 ft 443 kts 340°
2026-04-24 04:17 29.89309 -78.47525 37125 ft 444 kts 341°
2026-04-24 04:18 29.95253 -78.49466 37105 ft 444 kts 341°
2026-04-24 04:18 30.01197 -78.51409 37109 ft 444 kts 341°
2026-04-24 04:19 30.07142 -78.53356 37117 ft 444 kts 341°
2026-04-24 04:19 30.13068 -78.55201 37083 ft 447 kts 347°
2026-04-24 04:20 30.19291 -78.55427 37081 ft 453 kts
2026-04-24 04:20 30.25526 -78.54455 37099 ft 453 kts
2026-04-24 04:21 30.31767 -78.53478 37099 ft 453 kts
2026-04-24 04:21 30.38014 -78.52572 37104 ft 452 kts
2026-04-24 04:22 30.44216 -78.51669 37114 ft 452 kts
2026-04-24 04:22 30.50456 -78.50666 37119 ft 453 kts
2026-04-24 04:23 30.56696 -78.49639 37104 ft 453 kts
2026-04-24 04:23 30.62937 -78.48619 37107 ft 453 kts
2026-04-24 04:24 30.69137 -78.47611 37099 ft 453 kts
2026-04-24 04:24 30.75380 -78.46597 37121 ft 453 kts
2026-04-24 04:25 30.81617 -78.45584 37085 ft 453 kts
2026-04-24 04:25 30.87853 -78.44570 37099 ft 452 kts
2026-04-24 04:26 30.94083 -78.43555 37090 ft 452 kts
2026-04-24 04:26 31.00264 -78.42546 37102 ft 451 kts
2026-04-24 04:27 31.06485 -78.41530 37089 ft 451 kts
2026-04-24 04:27 31.12693 -78.40514 37104 ft 450 kts
2026-04-24 04:28 31.18900 -78.39497 37082 ft 450 kts
2026-04-24 04:28 31.25095 -78.38481 37104 ft 449 kts
2026-04-24 04:29 31.31244 -78.37471 37092 ft 449 kts
2026-04-24 04:29 31.37432 -78.36453 37086 ft 449 kts
2026-04-24 04:30 31.43616 -78.35435 37092 ft 448 kts
2026-04-24 04:30 31.49789 -78.34417 37086 ft 448 kts
2026-04-24 04:31 31.55916 -78.33405 37096 ft 447 kts
2026-04-24 04:31 31.62082 -78.32385 37073 ft 447 kts
2026-04-24 04:32 31.68243 -78.31365 37085 ft 447 kts
2026-04-24 04:32 31.74396 -78.30345 37080 ft 446 kts
2026-04-24 04:33 31.80503 -78.29331 37079 ft 446 kts
2026-04-24 04:33 31.86644 -78.28310 37077 ft 446 kts
2026-04-24 04:34 31.92783 -78.27288 37070 ft 445 kts
2026-04-24 04:34 31.98917 -78.26265 37078 ft 445 kts
2026-04-24 04:35 32.05045 -78.25266 37065 ft 444 kts
2026-04-24 04:35 32.11134 -78.24382 37085 ft 444 kts
2026-04-24 04:36 32.17266 -78.23510 37061 ft 444 kts
2026-04-24 04:36 32.23391 -78.22628 37071 ft 443 kts
2026-04-24 04:37 32.29508 -78.21736 37064 ft 443 kts
2026-04-24 04:37 32.35621 -78.20842 37080 ft 442 kts
2026-04-24 04:38 32.41689 -78.19952 37060 ft 442 kts
2026-04-24 04:38 32.47795 -78.19056 37065 ft 442 kts
2026-04-24 04:39 32.53891 -78.18161 37063 ft 441 kts
2026-04-24 04:39 32.59983 -78.17265 37065 ft 441 kts
2026-04-24 04:40 32.66029 -78.16374 37062 ft 441 kts
2026-04-24 04:40 32.72112 -78.15477 37048 ft 441 kts
2026-04-24 04:41 32.78191 -78.14578 37065 ft 440 kts
2026-04-24 04:41 32.84262 -78.13681 37042 ft 440 kts
2026-04-24 04:42 32.90336 -78.12781 37054 ft 439 kts
2026-04-24 04:42 32.96365 -78.11887 37053 ft 439 kts
2026-04-24 04:43 33.02428 -78.10986 37046 ft 439 kts
2026-04-24 04:43 33.08499 -78.10083 37050 ft 439 kts
2026-04-24 04:44 33.14566 -78.09180 37058 ft 440 kts
2026-04-24 04:44 33.20600 -78.08280 37040 ft 440 kts
2026-04-24 04:45 33.26668 -78.07373 37048 ft 439 kts
2026-04-24 04:45 33.32733 -78.06466 37039 ft 439 kts
2026-04-24 04:46 33.38795 -78.05558 37050 ft 439 kts
2026-04-24 04:46 33.44850 -78.04650 37035 ft 439 kts
2026-04-24 04:47 33.50866 -78.03746 37038 ft 438 kts
2026-04-24 04:47 33.56908 -78.02837 37040 ft 438 kts
2026-04-24 04:48 33.62954 -78.01927 37028 ft 438 kts
2026-04-24 04:48 33.68986 -78.01017 37040 ft 437 kts
2026-04-24 04:49 33.74981 -78.00111 37025 ft 437 kts
2026-04-24 04:49 33.81004 -77.99200 37051 ft 436 kts
2026-04-24 04:50 33.87025 -77.98288 37039 ft 436 kts
2026-04-24 04:50 33.93050 -77.97518 37048 ft 435 kts
2026-04-24 04:51 33.99072 -77.96899 37049 ft 434 kts
2026-04-24 04:51 34.05051 -77.96278 37035 ft 434 kts
2026-04-24 04:52 34.11070 -77.95630 37048 ft 434 kts
2026-04-24 04:52 34.17104 -77.94970 37042 ft 437 kts
2026-04-24 04:53 34.23162 -77.94302 37042 ft 438 kts
2026-04-24 04:53 34.29197 -77.93636 37033 ft 439 kts
2026-04-24 04:54 34.35276 -77.92964 37043 ft 439 kts
2026-04-24 04:54 34.41364 -77.92291 37039 ft 439 kts
2026-04-24 04:55 34.47438 -77.91618 37022 ft 438 kts
2026-04-24 04:55 34.53465 -77.90949 37022 ft 437 kts
2026-04-24 04:56 34.59509 -77.90278 37023 ft 436 kts
2026-04-24 04:56 34.65538 -77.89608 37038 ft 434 kts
2026-04-24 04:57 34.71554 -77.88938 37029 ft 433 kts
2026-04-24 04:57 34.77552 -77.88269 37021 ft 432 kts
2026-04-24 04:58 34.83497 -77.87605 37029 ft 431 kts
2026-04-24 04:58 34.89473 -77.86936 37025 ft 431 kts
2026-04-24 04:59 34.95444 -77.86267 37024 ft 431 kts
2026-04-24 04:59 35.01414 -77.85598 37014 ft 431 kts
2026-04-24 05:00 35.07380 -77.84928 37015 ft 431 kts
2026-04-24 05:00 35.13309 -77.84261 37016 ft 431 kts
2026-04-24 05:01 35.19281 -77.83588 37007 ft 431 kts
2026-04-24 05:01 35.25254 -77.82914 37003 ft 431 kts
2026-04-24 05:02 35.31229 -77.82238 37012 ft 431 kts
2026-04-24 05:02 35.37204 -77.81562 37002 ft 431 kts
2026-04-24 05:03 35.43137 -77.80889 37004 ft 431 kts
2026-04-24 05:03 35.49102 -77.80073 36988 ft 432 kts
2026-04-24 05:04 35.55054 -77.78989 36999 ft 432 kts
2026-04-24 05:04 35.60997 -77.77897 36990 ft 432 kts
2026-04-24 05:05 35.66910 -77.76842 36985 ft 432 kts
2026-04-24 05:05 35.72858 -77.75797 36968 ft 432 kts
2026-04-24 05:06 35.78801 -77.74755 36980 ft 431 kts
2026-04-24 05:06 35.84736 -77.73713 36958 ft 431 kts
2026-04-24 05:07 35.90628 -77.72676 36988 ft 430 kts
2026-04-24 05:07 35.96552 -77.71632 36960 ft 430 kts
2026-04-24 05:08 36.02463 -77.70588 36976 ft 429 kts
2026-04-24 05:08 36.08366 -77.69544 36960 ft 428 kts
2026-04-24 05:09 36.14226 -77.68506 36965 ft 428 kts
2026-04-24 05:09 36.20122 -77.67461 36956 ft 428 kts
2026-04-24 05:10 36.26011 -77.66415 36960 ft 427 kts
2026-04-24 05:10 36.31898 -77.65367 36961 ft 427 kts
2026-04-24 05:11 36.37743 -77.64326 36974 ft 427 kts
2026-04-24 05:11 36.43629 -77.63275 36965 ft 428 kts
2026-04-24 05:12 36.49516 -77.62223 36959 ft 428 kts
2026-04-24 05:12 36.55422 -77.61240 36951 ft 428 kts
2026-04-24 05:13 36.64241 -77.59876 36963 ft 428 kts
2026-04-24 05:14 36.70188 -77.58949 36260 ft 436 kts
2026-04-24 05:14 36.73183 -77.58477 35886 ft 430 kts
2026-04-24 05:14 36.76159 -77.58005 35077 ft 435 kts
2026-04-24 05:14 36.79149 -77.57531 34672 ft 431 kts
2026-04-24 05:15 36.82147 -77.57055 33759 ft 439 kts
2026-04-24 05:15 36.85160 -77.56576 33320 ft 434 kts
2026-04-24 05:15 36.88153 -77.56100 32719 ft 433 kts
2026-04-24 05:15 36.91109 -77.55627 32308 ft 427 kts
2026-04-24 05:16 36.94016 -77.55164 31857 ft 424 kts
2026-04-24 05:16 36.96922 -77.54700 31329 ft 422 kts
2026-04-24 05:16 36.99820 -77.54239 30992 ft 416 kts
2026-04-24 05:16 37.02695 -77.53780 30442 ft 416 kts
2026-04-24 05:17 37.05551 -77.53325 30069 ft 412 kts
2026-04-24 05:17 37.08388 -77.52871 29550 ft 410 kts
2026-04-24 05:17 37.11204 -77.52421 29081 ft 406 kts
2026-04-24 05:17 37.13994 -77.51975 28604 ft 402 kts
2026-04-24 05:18 37.16756 -77.51532 28158 ft 398 kts
2026-04-24 05:18 37.19499 -77.51093 27698 ft 396 kts
2026-04-24 05:18 37.22181 -77.50664 27269 ft 393 kts
2026-04-24 05:18 37.24879 -77.50231 26826 ft 390 kts
2026-04-24 05:19 37.27563 -77.49800 26392 ft 387 kts
2026-04-24 05:19 37.30224 -77.49373 25973 ft 385 kts
2026-04-24 05:19 37.32877 -77.48946 25539 ft 383 kts
2026-04-24 05:19 37.35513 -77.48523 25111 ft 381 kts
2026-04-24 05:20 37.38135 -77.48101 24682 ft 380 kts
2026-04-24 05:20 37.40756 -77.47679 24234 ft 379 kts
2026-04-24 05:20 37.43366 -77.47258 23816 ft 378 kts
2026-04-24 05:20 37.45974 -77.46838 23329 ft 378 kts
2026-04-24 05:21 37.48542 -77.46423 22886 ft 376 kts
2026-04-24 05:21 37.51128 -77.46005 22425 ft 374 kts
2026-04-24 05:21 37.53699 -77.45590 22001 ft 371 kts
2026-04-24 05:21 37.56251 -77.45177 21571 ft 369 kts
2026-04-24 05:22 37.58794 -77.44761 21158 ft 367 kts
2026-04-24 05:22 37.61307 -77.44150 20629 ft 370 kts 11°
2026-04-24 05:22 37.63798 -77.43350 20248 ft 368 kts 12°
2026-04-24 05:22 37.66267 -77.42524 19808 ft 367 kts 12°
2026-04-24 05:23 37.68698 -77.41727 19408 ft 365 kts 12°
2026-04-24 05:23 37.71157 -77.40948 19014 ft 363 kts 12°
2026-04-24 05:23 37.73609 -77.40188 18607 ft 362 kts 12°
2026-04-24 05:23 37.76050 -77.39435 18186 ft 361 kts 12°
2026-04-24 05:24 37.78492 -77.38682 17730 ft 360 kts 12°
2026-04-24 05:24 37.80905 -77.37936 17425 ft 354 kts 12°
2026-04-24 05:24 37.83297 -77.37197 16972 ft 354 kts 12°
2026-04-24 05:24 37.85677 -77.36460 16604 ft 350 kts 12°
2026-04-24 05:25 37.88000 -77.35741 16215 ft 348 kts 12°
2026-04-24 05:25 37.90347 -77.35014 15831 ft 346 kts 12°
2026-04-24 05:25 37.92678 -77.34297 15450 ft 343 kts 12°
2026-04-24 05:25 37.94988 -77.33587 15072 ft 341 kts 12°
2026-04-24 05:26 37.97284 -77.32881 14685 ft 339 kts 12°
2026-04-24 05:26 37.99572 -77.32177 14317 ft 337 kts 12°
2026-04-24 05:26 38.01839 -77.31478 13935 ft 335 kts 12°
2026-04-24 05:26 38.04100 -77.30781 13537 ft 334 kts 12°
2026-04-24 05:27 38.06349 -77.30087 13114 ft 332 kts 12°
2026-04-24 05:27 38.08584 -77.29393 12746 ft 329 kts 12°
2026-04-24 05:27 38.10799 -77.28698 12426 ft 327 kts 12°
2026-04-24 05:27 38.12975 -77.28013 12096 ft 327 kts 12°
2026-04-24 05:28 38.15184 -77.27318 11769 ft 328 kts 12°
2026-04-24 05:28 38.17399 -77.26622 11442 ft 327 kts 12°
2026-04-24 05:28 38.19592 -77.25932 11113 ft 324 kts 12°
2026-04-24 05:28 38.21756 -77.25246 10781 ft 316 kts 11°
2026-04-24 05:29 38.23857 -77.24578 10471 ft 307 kts 11°
2026-04-24 05:29 38.25899 -77.23928 10164 ft 299 kts 11°
2026-04-24 05:29 38.27225 -77.23507 9972 ft 294 kts 11°
2026-04-24 05:29 38.29153 -77.22892 9851 ft 279 kts 11°
2026-04-24 05:30 38.31646 -77.22099 9334 ft 273 kts 11°
2026-04-24 05:30 38.33463 -77.21451 8987 ft 272 kts 20°
2026-04-24 05:30 38.35008 -77.20057 8759 ft 272 kts 39°
2026-04-24 05:30 38.36421 -77.18435 8413 ft 277 kts 39°
2026-04-24 05:31 38.37859 -77.16795 8158 ft 278 kts 39°
2026-04-24 05:31 38.39303 -77.15154 7852 ft 278 kts 39°
2026-04-24 05:31 38.40261 -77.14068 7660 ft 278 kts 39°
2026-04-24 05:31 38.41709 -77.12428 7369 ft 278 kts 39°
2026-04-24 05:32 38.43626 -77.10259 6985 ft 278 kts 39°
2026-04-24 05:32 38.45072 -77.08624 6692 ft 276 kts 39°
2026-04-24 05:32 38.46501 -77.07009 6396 ft 273 kts 39°
2026-04-24 05:32 38.47907 -77.05419 6097 ft 268 kts 39°
2026-04-24 05:33 38.49297 -77.03846 5812 ft 267 kts 39°
2026-04-24 05:33 38.50220 -77.02803 5622 ft 268 kts 39°
2026-04-24 05:33 38.51709 -77.01395 5287 ft 268 kts 20°
2026-04-24 05:34 38.55932 -77.00993 4679 ft 264 kts 358°
2026-04-24 05:34 38.57755 -77.01036 4422 ft 261 kts 354°
2026-04-24 05:34 38.58979 -77.01126 4223 ft 261 kts 353°
2026-04-24 05:34 38.60764 -77.01300 3936 ft 252 kts 352°
2026-04-24 05:35 38.62447 -77.01473 3673 ft 240 kts 352°
2026-04-24 05:35 38.64075 -77.01640 3427 ft 229 kts 353°
2026-04-24 05:35 38.65635 -77.01799 3174 ft 220 kts 352°
2026-04-24 05:35 38.67137 -77.01951 2961 ft 215 kts 352°
2026-04-24 05:36 38.68619 -77.02102 2722 ft 213 kts 352°
2026-04-24 05:36 38.70095 -77.02252 2529 ft 214 kts 352°
2026-04-24 05:36 38.71559 -77.02399 2435 ft 205 kts 352°
2026-04-24 05:36 38.72951 -77.02539 2151 ft 195 kts 351°
2026-04-24 05:37 38.74259 -77.02671 1944 ft 184 kts 351°
2026-04-24 05:37 38.75500 -77.02796 1721 ft 172 kts 351°
2026-04-24 05:37 38.76635 -77.02911 1519 ft 157 kts 351°
2026-04-24 05:37 38.77675 -77.03011 1307 ft 142 kts 350°
2026-04-24 05:38 38.78646 -77.03117 1104 ft 139 kts 351°
2026-04-24 05:38 38.79626 -77.03217 934 ft 143 kts 353°
2026-04-24 05:38 38.80629 -77.03318 743 ft 147 kts 353°
2026-04-24 05:38 38.81659 -77.03422 544 ft 149 kts 354°
2026-04-24 05:39 38.82683 -77.03525 353 ft 147 kts 355°
2026-04-24 05:39 38.83709 -77.03629 159 ft 149 kts 355°
2026-04-24 05:39 38.84717 -77.03732 24 ft 138 kts 355°
2026-04-24 05:39 38.85451 -77.03810 27 ft 61 kts 347°
2026-04-24 05:40 38.85560 -77.03969 28 ft 13 kts 268°
2026-04-24 05:40 38.85539 -77.04082 26 ft 13 kts 250°
2026-04-24 05:40 38.85559 -77.04164 26 ft 10 kts 335°
2026-04-24 05:40 38.85580 -77.04177 27 ft 0 kts 332°